Simultaneous Nadir Overpasses (SNOs) Predictions

Prediction of SNOs between GOES-17 and NOAA-19 Satellite Orbit:

Table of predicted SNOs for the next 14.0 days since TLE Epoch: 7/3/2020
Index Date Time (GOES-17) GOES-17 Lat,Lon NOAA-19 Lat,Lon Distance(km) Time Diff (sec)
1 07/04/2020 15:06:47 0.03,-137.19 -0.00,-137.03 18.69 80
2 07/05/2020 14:52:26 0.03,-137.19 -0.69,-134.18 343.79 80
3 07/08/2020 03:13:31 -0.03,-137.15 -0.51,-139.16 229.11 80
4 07/09/2020 03:04:30 -0.02,-137.15 0.15,-136.30 95.95 80
5 07/10/2020 02:52:49 -0.02,-137.14 0.86,-133.46 420.90 80
6 07/11/2020 15:22:44 0.02,-137.13 1.00,-141.24 469.46 80
7 07/12/2020 15:11:03 0.02,-137.12 0.30,-138.39 144.78 80
8 07/13/2020 15:02:02 0.02,-137.11 -0.34,-135.53 179.79 80
9 07/16/2020 03:20:24 -0.02,-137.06 -0.84,-140.51 394.06 80
10 07/17/2020 03:11:23 -0.01,-137.04 -0.17,-137.65 70.41 80
